Preview of NWS' New Version of Forecast
This preview is not operational and should not be used for support decisions.

Regional Weather Roundup (RWR)

Issued by National Weather Service (NWS)

                            
000
ASUS45 KBOU 170610
RWRCO 

WEATHER ROUNDUP FOR COLORADO
NATIONAL WEATHER SERVICE DENVER/BOULDER CO
1200 AM MDT MON JUN 17 2019

NOTE: "FAIR" INDICATES FEW OR NO CLOUDS BELOW 12000 FEET WITH NO
SIGNIFICANT WEATHER AND/OR OBSTRUCTIONS TO VISIBILITY.

COZ001>005-013-030-031-170700-
...NORTHWEST COLORADO...
  
CITY           SKY/WX    TMP DP  RH WIND       PRES   REMARKS
CRAIG          FAIR      55  43  63 W5        30.06R                  
HAYDEN         CLOUDY    57  42  57 CALM      30.10R                  
MEEKER         FAIR      57  40  52 E3        30.09R                  
RANGELY        MOCLDY    68  43  40 CALM      30.01R                  
RABBIT EARS PA NOT AVBL                                               
STEAMBOAT SPGS MOCLDY    52  46  78 CALM      30.11R                  
WALDEN         MOCLDY    50  37  62 E8        30.19R                  
$$

COZ006>008-011-170700-
...WEST CENTRAL VALLEYS...
  
CITY           SKY/WX    TMP DP  RH WIND       PRES   REMARKS
GRAND JUNCTION MOCLDY    68  40  35 E5        29.98S                  
MONTROSE       FAIR      61  43  51 SE16      30.08S                  
EAGLE          MOCLDY    56  40  55 E7        30.13R                  
RIFLE          FAIR      63  38  39 SE5       30.04R                  
DELTA          FAIR      67  44  43 CALM      30.04F                  
NUCLA          FAIR      63  41  45 SE8       30.11S                  
$$

COZ017>023-064>068-170700-
...SOUTHWEST COLORADO...
  
CITY           SKY/WX    TMP DP  RH WIND       PRES   REMARKS
DURANGO        CLOUDY    56  45  66 W3        30.13R                  
CORTEZ         FAIR      57  47  69 NE6       30.09S                  
PAGOSA SPRINGS CLOUDY    52  44  74 CALM      30.20S                  
TELLURIDE      CLOUDY    46  41  81 SE5       30.31S                  
WOLF CREEK PAS FAIR      43  32  65 CALM      30.50F                  
$$

COZ009-010-012-014-032>034-037-058>063-170700-
...CENTRAL COLORADO...
  
CITY           SKY/WX    TMP DP  RH WIND       PRES   REMARKS
ASPEN          FAIR      50  37  61 SW7       30.18R                  
BUENA VISTA    FAIR      51  42  72 CALM      30.22S                  
COPPER MTN     FAIR      46  32  57 CALM      30.44F                  
BERTHOUD PASS  FAIR      36  28  75 W14       30.46S                  
COTTONWOOD PAS FAIR      48  37  66 CALM      30.32S                  
GUNNISON       FAIR      55  40  56 CALM      30.21R                  
GRANBY         FAIR      43  41  92 SE3       30.22S                  
KREMMLING      NOT AVBL                                               
LEADVILLE      MOCLDY    44  34  67 NE3       30.31R                  
MONARCH PASS   CLOUDY    39  34  81 MISG      30.54S                  
SALIDA         MOCLDY    59  42  53 S5        30.25S                  
SUNLIGHT       FAIR      43  32  65 SW8       30.39R                  
WILKERSON PASS FAIR      41  37  87 CALM      30.44S                  
$$

COZ069>075-170700-
...SAN LUIS VALLEY/SANGRE DE CRISTO MOUNTAINS...
  
CITY           SKY/WX    TMP DP  RH WIND       PRES   REMARKS
ALAMOSA        CLOUDY    57  42  57 E9        30.18S                  
DEL NORTE      CLOUDY    54  39  58 SW8       30.22S                  
LA VETA PASS   NOT AVBL                                               
SAGUACHE       FAIR      52  43  71 CALM      30.21S                  
$$

COZ035-036-038>040-170700-
...NORTHERN COLORADO FRONT RANGE...
  
CITY           SKY/WX    TMP DP  RH WIND       PRES   REMARKS
DENVER INTL AP CLOUDY    59  51  75 NE10      30.05F                  
AURORA         MOCLDY    58  55  90 E8        30.09S                  
FRONT RANGE AP FAIR      61  52  72 NE10      30.07F                  
ERIE MUNI ARPT NOT AVBL                                               
BOULDER MUN AP FAIR      59  50  72 SW7       30.06F                  
CENTENNIAL     MOCLDY    61  52  72 N7        30.09F                  
BROOMFIELD     FAIR      55  52  88 W7        30.09F                  
FORT COLLINS     N/A     59  55  87 NE9       30.07S                  
LONGMONT       FAIR      57  52  84 CALM      30.07F                  
$$

COZ041-046-047-076>085-087-088-170700-
...PIKES PEAK/PALMER DIVIDE AND SOUTHERN FOOTHILLS...
  
CITY           SKY/WX    TMP DP  RH WIND       PRES   REMARKS
COLO. SPRINGS  MOCLDY    53  46  77 N8        30.13S                  
A. F. ACADEMY  MOCLDY    53  45  75 N6        30.13S                  
SCHRIEVER AFB  NOT AVBL                                               
CHEYENNE MTN   NOT AVBL                                               
ELLICOTT       NOT AVBL                                               
FALCON         FAIR      55  42  61 N7        30.18S                  
FORT CARSON    MOCLDY    53  47  80 NW7       30.09S                  
LIMON          FAIR      56  54  93 SE10      30.08S                  
MONUMENT HILL  MOCLDY    52  45  76 SW6       30.18F                  
CANON CITY     FAIR      59  52  77 CALM      30.07R                  
WALSENBURG     NOT AVBL                                               
TRINIDAD       FAIR      62  47  57 W12       30.09R                  
$$

COZ042>045-048>051-090-091-170700-
...NORTHEAST COLORADO...
  
CITY           SKY/WX    TMP DP  RH WIND       PRES   REMARKS
GREELEY ARPT   FAIR      59  55  87 E7        30.06R                  
AKRON          MOCLDY    58  57  97 SE16      30.05S                  
BURLINGTON     FAIR      59  56  89 E13       30.05S                  
WRAY           FAIR      59  54  82 E8        30.02S                  
YUMA           CLOUDY    55  45  67 SE5       30.04R                  
STERLING       MOCLDY    61  57  88 CALM      30.03R                  
HOLYOKE        MOCLDY    61  55  82 SE3       30.03R                  
FORT MORGAN    FAIR      57  55  91 CALM      30.06R                  
$$

COZ086-089-092>099-170700-
...SOUTHEAST COLORADO...
  
CITY           SKY/WX    TMP DP  RH WIND       PRES   REMARKS
PUEBLO         FAIR      64  51  62 CALM      30.03S                  
LA JUNTA       FAIR      70  52  52 SE12      30.02F                  
LAMAR          TSTM      66  54  65 SW12      29.99R                  
SPRINGFIELD      N/A     56  54  93 S8        30.05S                  
$$